Kenosha, WI

6:22 AM CST on January 19, 2018 (GMT -0600)
Kenosha Regional

Weather History for KENW - May, 2013

Change the Weather History Date:

Tuesday, May 7, 2013

  Actual Average Record
Temperature  
Mean Temperature 59 °F -  
Max Temperature 75 °F 59 °F 86 °F (1949)
Min Temperature 45 °F 41 °F 29 °F (1989)
Degree Days  
Heating Degree Days 6    
Growing Degree Days 9 (Base 50)    
Moisture  
Dew Point 40 °F    
Average Humidity 50    
Maximum Humidity 74    
Minimum Humidity 27    
Precipitation  
Precipitation 0.00 in - - ()
Sea Level Pressure  
Sea Level Pressure 30.03 in    
Wind  
Wind Speed 5 mph (NE)    
Max Wind Speed 10 mph    
Max Gust Speed -    
Visibility 10 miles    
Events      
Averages and records for this station are not official NWS values.
T = Trace of Precipitation, MM = Missing Value Source: NWS Daily Summary

Daily Weather History Graph

Daily Weather History Graph

Search for Another Location

Airport or City:

Trip Planner

Search our weather history database for the weather conditions in past years. The results will help you decide how hot, cold, wet, or windy it might be!

Date:

Astronomy

May. 07, 2013 Rise Set
Actual Time 5:38 AM CDT 7:58 PM CDT
Civil Twilight 5:06 AM CDT 8:30 PM CDT
Nautical Twilight 4:27 AM CDT 9:09 PM CDT
Astronomical Twilight 3:44 AM CDT 9:53 PM CDT
Moon 4:15 AM CDT (5/7) 5:56 PM CDT (5/7)
Length of Visible Light 15h 23m
Length of Day
14h 20m
Waning Crescent, 5% of the Moon is Illuminated
May 7
Waning Crescent
May 9
New
May 17
First Quarter
May 24
Full
May 31
Last Quarter

Hourly Weather History & Observations

Time (CDT) Temp. Windchill Dew Point Humidity Pressure Visibility Wind Dir Wind Speed Gust Speed Precip Events Conditions
12:53 AM 48.9 °F - 36.0 °F 61% 30.02 in 10.0 mi NW 3.5 mph - N/A   Clear
1:53 AM 46.9 °F - 37.0 °F 68% 30.01 in 10.0 mi WNW 3.5 mph - N/A   Clear
3:53 AM 50.0 °F - 37.0 °F 61% 30.01 in 10.0 mi WNW 3.5 mph - N/A   Clear
4:53 AM 45.0 °F 42.6 °F 36.0 °F 71% 30.02 in 10.0 mi WNW 4.6 mph - N/A   Partly Cloudy
5:53 AM 52.0 °F - 37.9 °F 59% 30.04 in 10.0 mi NW 4.6 mph - N/A   Overcast
6:53 AM 55.0 °F - 37.0 °F 51% 30.05 in 10.0 mi North 4.6 mph - N/A   Partly Cloudy
7:53 AM 57.9 °F - 36.0 °F 44% 30.06 in 10.0 mi North 9.2 mph - N/A   Clear
8:53 AM 64.0 °F - 37.0 °F 37% 30.06 in 10.0 mi North 8.1 mph - N/A   Clear
9:53 AM 69.1 °F - 37.0 °F 31% 30.06 in 10.0 mi North 6.9 mph - N/A   Clear
10:53 AM 68.0 °F - 42.1 °F 39% 30.06 in 10.0 mi ESE 6.9 mph - N/A   Clear
11:53 AM 73.0 °F - 39.9 °F 30% 30.05 in 10.0 mi NE 10.4 mph - N/A   Clear
12:53 PM 73.9 °F - 37.9 °F 27% 30.04 in 10.0 mi NE 6.9 mph - N/A   Clear
1:53 PM 72.0 °F - 37.9 °F 29% 30.04 in 10.0 mi East 9.2 mph - N/A   Clear
2:53 PM 72.0 °F - 39.9 °F 31% 30.03 in 10.0 mi East 9.2 mph - N/A   Clear
3:53 PM 70.0 °F - 42.1 °F 36% 30.02 in 10.0 mi East 10.4 mph - N/A   Clear
4:53 PM 70.0 °F - 45.0 °F 41% 30.02 in 10.0 mi East 8.1 mph - N/A   Clear
5:53 PM 70.0 °F - 44.1 °F 39% 30.01 in 10.0 mi East 3.5 mph - N/A   Clear
6:53 PM 68.0 °F - 46.9 °F 47% 30.00 in 10.0 mi East 4.6 mph - N/A   Clear
7:53 PM 60.1 °F - 44.1 °F 55% 30.01 in 10.0 mi East 4.6 mph - N/A   Clear
8:53 PM 53.1 °F - 43.0 °F 69% 30.02 in 10.0 mi East 6.9 mph - N/A   Clear
9:53 PM 48.9 °F - 41.0 °F 74% 30.03 in 10.0 mi East 3.5 mph - N/A   Clear
10:53 PM 48.0 °F - 39.9 °F 74% 30.04 in 10.0 mi Calm Calm - N/A   Clear
11:53 PM 48.0 °F - 39.9 °F 74% 30.03 in 10.0 mi Calm Calm - N/A   Clear